User: anonymous   Login
Location: Unspecified
(0.0000°N, 0.0000°E)
Time: 03:00:47
(UTC+00:00)
Language:

STARLINK-31881 - Orbit

View from above orbital plane
View from above orbital plane
View from above satellite
View from above satellite

Ground track
Ground track

The orbit is defined by the following mean orbital elements,

1 59659U          26145.49418003 +.00000000 +00000-0 -11194-3 0 00004
2 59659  43.0042 324.2216 0001012 245.5457 114.5290 15.27590263    07
Epoch (UTC): 25 May 2026 11:51:37
Eccentricity: 0.0001012
inclination: 43.0042°
perigee height: 482 km
apogee height: 484 km
right ascension of ascending node: 324.2216°
argument of perigee: 245.5457°
revolutions per day: 15.27590263
mean anomaly at epoch: 114.5290°

The dashed part of the orbit path shows where the satellite is in the earth's shadow,  

DLR